Time,TemperatureF,DewpointF,PressureIn,WindDirection,WindDirectionDegrees,WindSpeedMPH,WindSpeedGustMPH,Humidity,HourlyPrecipIn,Conditions,Clouds,dailyrainin,SolarRadiationWatts/m^2,SoftwareType,DateUTC
2013-03-16 00:30:00,30.9,20.9,29.88,NNW,333,9.0,9.0,66,0.00,,,0.00,0,Wunderground v.1.15,2013-03-16 04:30:00,
2013-03-16 00:40:00,30.8,20.8,29.89,North,355,7.0,7.0,66,0.00,,,0.00,0,Wunderground v.1.15,2013-03-16 04:40:00,
2013-03-16 00:50:00,30.6,20.9,29.89,NW,322,6.0,9.0,67,0.00,,,0.00,0,Wunderground v.1.15,2013-03-16 04:50:00,
2013-03-16 01:00:00,30.5,21.2,29.89,NW,311,6.0,6.0,68,0.00,,,0.00,0,Wunderground v.1.15,2013-03-16 05:00:00,
2013-03-16 01:10:00,30.3,21.0,29.88,NW,323,5.0,5.0,68,0.00,,,0.00,0,Wunderground v.1.15,2013-03-16 05:10:00,
2013-03-16 01:20:00,30.2,20.9,29.88,NW,309,5.0,5.0,68,0.00,,,0.00,0,Wunderground v.1.15,2013-03-16 05:20:00,
2013-03-16 01:30:00,30.2,20.9,29.89,NNW,336,5.0,5.0,68,0.00,,,0.00,0,Wunderground v.1.15,2013-03-16 05:30:00,
2013-03-16 01:40:00,30.1,20.5,29.89,NW,325,5.0,5.0,67,0.00,,,0.00,0,Wunderground v.1.15,2013-03-16 05:40:00,
2013-03-16 01:50:00,30.1,20.8,29.89,WNW,299,4.0,4.0,68,0.00,,,0.00,0,Wunderground v.1.15,2013-03-16 05:50:00,
2013-03-16 02:00:00,30.0,20.7,29.89,NW,325,4.0,4.0,68,0.00,,,0.00,0,Wunderground v.1.15,2013-03-16 06:00:00,
2013-03-16 02:10:00,29.9,20.6,29.89,NW,314,4.0,4.0,68,0.00,,,0.00,0,Wunderground v.1.15,2013-03-16 06:10:00,
2013-03-16 02:20:00,29.8,20.5,29.89,NNW,342,3.0,3.0,68,0.00,,,0.00,0,Wunderground v.1.15,2013-03-16 06:20:00,
2013-03-16 02:30:00,29.7,20.8,29.90,North,351,2.0,2.0,69,0.00,,,0.00,0,Wunderground v.1.15,2013-03-16 06:30:00,
2013-03-16 02:40:00,29.6,20.7,29.89,North,355,2.0,2.0,69,0.00,,,0.00,0,Wunderground v.1.15,2013-03-16 06:40:00,
2013-03-16 02:50:00,29.5,20.6,29.89,North,360,1.0,3.0,69,0.00,,,0.00,0,Wunderground v.1.15,2013-03-16 06:50:00,
2013-03-16 03:00:00,29.4,20.1,29.89,NNE,13,2.0,2.0,68,0.00,,,0.00,0,Wunderground v.1.15,2013-03-16 07:00:00,
2013-03-16 03:10:00,29.4,20.1,29.89,North,355,2.0,3.0,68,0.00,,,0.00,0,Wunderground v.1.15,2013-03-16 07:10:00,
2013-03-16 03:20:00,29.4,19.8,29.89,North,355,3.0,3.0,67,0.00,,,0.00,0,Wunderground v.1.15,2013-03-16 07:20:00,
2013-03-16 03:30:00,29.2,18.9,29.88,North,5,4.0,4.0,65,0.00,,,0.00,0,Wunderground v.1.15,2013-03-16 07:30:00,
2013-03-16 03:40:00,29.0,19.1,29.88,NNE,13,3.0,3.0,66,0.00,,,0.00,0,Wunderground v.1.15,2013-03-16 07:40:00,
2013-03-16 03:50:00,28.7,18.8,29.88,NNE,24,3.0,4.0,66,0.00,,,0.00,0,Wunderground v.1.15,2013-03-16 07:50:00,
2013-03-16 04:00:00,28.4,18.5,29.87,NE,42,3.0,5.0,66,0.00,,,0.00,0,Wunderground v.1.15,2013-03-16 08:00:00,
2013-03-16 04:10:00,28.1,18.2,29.87,NNE,21,3.0,3.0,66,0.00,,,0.00,0,Wunderground v.1.15,2013-03-16 08:10:00,
2013-03-16 04:20:00,27.9,18.4,29.87,NE,44,3.0,3.0,67,0.00,,,0.00,0,Wunderground v.1.15,2013-03-16 08:20:00,
2013-03-16 04:30:00,27.6,18.1,29.86,NE,39,2.0,3.0,67,0.00,,,0.00,0,Wunderground v.1.15,2013-03-16 08:30:00,
2013-03-16 04:40:00,27.4,18.2,29.86,NNE,28,2.0,2.0,68,0.00,,,0.00,0,Wunderground v.1.15,2013-03-16 08:40:00,
2013-03-16 04:50:00,27.2,18.0,29.86,NNE,24,2.0,3.0,68,0.00,,,0.00,0,Wunderground v.1.15,2013-03-16 08:50:00,
2013-03-16 05:00:00,27.0,18.2,29.86,NNE,18,2.0,2.0,69,0.00,,,0.00,0,Wunderground v.1.15,2013-03-16 09:00:00,
2013-03-16 05:10:00,26.9,17.7,29.86,NNE,32,2.0,2.0,68,0.00,,,0.00,0,Wunderground v.1.15,2013-03-16 09:10:00,
2013-03-16 05:20:00,26.8,18.0,29.86,NNE,28,3.0,3.0,69,0.00,,,0.00,0,Wunderground v.1.15,2013-03-16 09:20:00,
2013-03-16 05:30:00,26.8,18.3,29.86,NE,40,4.0,4.0,70,0.00,,,0.00,0,Wunderground v.1.15,2013-03-16 09:30:00,
2013-03-16 05:40:00,26.9,18.7,29.87,NE,40,5.0,6.0,71,0.00,,,0.00,0,Wunderground v.1.15,2013-03-16 09:40:00,
2013-03-16 05:50:00,26.9,18.7,29.87,North,11,5.0,5.0,71,0.00,,,0.00,0,Wunderground v.1.15,2013-03-16 09:50:00,
2013-03-16 06:00:00,26.8,18.3,29.87,NNE,30,3.0,3.0,70,0.00,,,0.00,0,Wunderground v.1.15,2013-03-16 10:00:00,
2013-03-16 06:10:00,26.8,18.7,29.87,NNE,21,3.0,4.0,71,0.00,,,0.00,0,Wunderground v.1.15,2013-03-16 10:10:00,
2013-03-16 06:20:00,26.8,18.3,29.88,NNE,30,4.0,4.0,70,0.00,,,0.00,0,Wunderground v.1.15,2013-03-16 10:20:00,
2013-03-16 06:30:00,26.8,18.7,29.88,NNE,20,4.0,4.0,71,0.00,,,0.00,0,Wunderground v.1.15,2013-03-16 10:30:00,
2013-03-16 06:40:00,26.9,18.7,29.88,NNE,32,4.0,4.0,71,0.00,,,0.00,0,Wunderground v.1.15,2013-03-16 10:40:00,
2013-03-16 06:50:00,26.9,18.7,29.89,NE,52,5.0,7.0,71,0.00,,,0.00,0,Wunderground v.1.15,2013-03-16 10:50:00,
2013-03-16 07:00:00,26.7,18.6,29.88,NNE,28,7.0,7.0,71,0.00,,,0.00,0,Wunderground v.1.15,2013-03-16 11:00:00,
2013-03-16 07:10:00,26.6,19.1,29.88,NNE,21,4.0,4.0,73,0.00,,,0.00,0,Wunderground v.1.15,2013-03-16 11:10:00,
2013-03-16 07:20:00,26.5,19.0,29.88,NE,51,6.0,6.0,73,0.00,,,0.00,0,Wunderground v.1.15,2013-03-16 11:20:00,
2013-03-16 07:40:00,26.2,18.1,29.88,NE,34,6.0,6.0,71,0.00,,,0.00,9,Wunderground v.1.15,2013-03-16 11:40:00,
2013-03-16 07:50:00,26.1,18.3,29.88,NE,40,6.0,9.0,72,0.00,,,0.00,16,Wunderground v.1.15,2013-03-16 11:50:00,
2013-03-16 08:00:00,26.1,18.3,29.88,NE,34,6.0,6.0,72,0.00,,,0.00,26,Wunderground v.1.15,2013-03-16 12:00:00,
2013-03-16 08:10:00,26.2,18.1,29.88,ENE,57,4.0,4.0,71,0.00,,,0.00,49,Wunderground v.1.15,2013-03-16 12:10:00,
2013-03-16 08:20:00,26.3,17.8,29.88,NNE,23,4.0,4.0,70,0.00,,,0.00,47,Wunderground v.1.15,2013-03-16 12:20:00,
2013-03-16 08:30:00,26.4,17.9,29.88,NE,38,4.0,5.0,70,0.00,,,0.00,74,Wunderground v.1.15,2013-03-16 12:30:00,
2013-03-16 08:40:00,26.5,17.7,29.88,East,83,5.0,5.0,69,0.00,,,0.00,74,Wunderground v.1.15,2013-03-16 12:40:00,
2013-03-16 08:50:00,26.6,17.8,29.88,ENE,61,5.0,5.0,69,0.00,,,0.00,113,Wunderground v.1.15,2013-03-16 12:50:00,
2013-03-16 09:00:00,26.8,18.0,29.88,NE,44,4.0,7.0,69,0.00,,,0.00,137,Wunderground v.1.15,2013-03-16 13:00:00,
2013-03-16 09:10:00,27.1,17.9,29.88,NE,55,5.0,5.0,68,0.00,,,0.00,165,Wunderground v.1.15,2013-03-16 13:10:00,
2013-03-16 09:20:00,27.4,18.2,29.88,NE,45,6.0,6.0,68,0.00,,,0.00,211,Wunderground v.1.15,2013-03-16 13:20:00,
2013-03-16 09:30:00,27.6,18.8,29.87,ENE,65,5.0,5.0,69,0.00,,,0.00,162,Wunderground v.1.15,2013-03-16 13:30:00,
2013-03-16 09:40:00,27.6,18.8,29.87,ENE,63,5.0,5.0,69,0.00,,,0.00,181,Wunderground v.1.15,2013-03-16 13:40:00,
2013-03-16 09:50:00,27.8,19.9,29.86,East,86,5.0,6.0,72,0.00,,,0.00,257,Wunderground v.1.15,2013-03-16 13:50:00,
2013-03-16 10:00:00,28.3,19.8,29.86,NE,43,4.0,6.0,70,0.00,,,0.00,165,Wunderground v.1.15,2013-03-16 14:00:00,
2013-03-16 10:10:00,27.9,19.4,29.87,East,92,5.0,5.0,70,0.00,,,0.00,192,Wunderground v.1.15,2013-03-16 14:10:00,
2013-03-16 10:20:00,27.6,19.1,29.87,ENE,70,3.0,3.0,70,0.00,,,0.00,165,Wunderground v.1.15,2013-03-16 14:20:00,
2013-03-16 10:30:00,28.0,20.1,29.86,North,350,4.0,6.0,72,0.00,,,0.00,183,Wunderground v.1.15,2013-03-16 14:30:00,
2013-03-16 10:40:00,27.6,19.8,29.86,ENE,76,8.0,8.0,72,0.00,,,0.00,149,Wunderground v.1.15,2013-03-16 14:40:00,
2013-03-16 10:50:00,27.5,20.0,29.87,ENE,74,5.0,5.0,73,0.00,,,0.00,213,Wunderground v.1.15,2013-03-16 14:50:00,
2013-03-16 11:00:00,27.4,20.5,29.87,ENE,57,4.0,4.0,75,0.00,,,0.00,316,Wunderground v.1.15,2013-03-16 15:00:00,
2013-03-16 11:10:00,27.9,21.6,29.88,NNE,23,4.0,8.0,77,0.00,,,0.00,429,Wunderground v.1.15,2013-03-16 15:10:00,
2013-03-16 11:20:00,28.5,22.2,29.87,NE,46,7.0,9.0,77,0.00,,,0.00,476,Wunderground v.1.15,2013-03-16 15:20:00,
2013-03-16 11:30:00,28.8,22.8,29.87,ENE,63,6.0,7.0,78,0.00,,,0.00,540,Wunderground v.1.15,2013-03-16 15:30:00,
2013-03-16 11:40:00,28.6,21.7,29.86,ENE,61,7.0,9.0,75,0.00,,,0.00,343,Wunderground v.1.15,2013-03-16 15:40:00,
2013-03-16 11:50:00,28.3,21.7,29.86,ENE,70,7.0,7.0,76,0.00,,,0.00,269,Wunderground v.1.15,2013-03-16 15:50:00,
2013-03-16 12:00:00,28.3,21.4,29.87,NE,43,8.0,8.0,75,0.00,,,0.00,366,Wunderground v.1.15,2013-03-16 16:00:00,
2013-03-16 12:10:00,28.4,21.5,29.87,NE,51,7.0,7.0,75,0.00,,,0.00,385,Wunderground v.1.15,2013-03-16 16:10:00,
2013-03-16 12:20:00,29.5,22.2,29.87,NNE,13,8.0,8.0,74,0.00,,,0.00,510,Wunderground v.1.15,2013-03-16 16:20:00,
2013-03-16 12:30:00,28.2,21.3,29.87,ENE,59,7.0,11.0,75,0.00,,,0.00,315,Wunderground v.1.15,2013-03-16 16:30:00,
2013-03-16 12:40:00,28.5,21.9,29.86,East,86,8.0,8.0,76,0.00,,,0.00,329,Wunderground v.1.15,2013-03-16 16:40:00,
2013-03-16 12:50:00,28.4,21.8,29.86,ENE,65,8.0,9.0,76,0.00,,,0.00,464,Wunderground v.1.15,2013-03-16 16:50:00,
2013-03-16 13:00:00,28.4,22.4,29.86,NE,36,9.0,9.0,78,0.00,,,0.00,478,Wunderground v.1.15,2013-03-16 17:00:00,
2013-03-16 13:10:00,28.4,22.4,29.86,NE,49,10.0,11.0,78,0.00,,,0.00,457,Wunderground v.1.15,2013-03-16 17:10:00,
2013-03-16 13:20:00,28.1,21.8,29.86,NE,55,9.0,9.0,77,0.00,,,0.00,355,Wunderground v.1.15,2013-03-16 17:20:00,
2013-03-16 13:30:00,27.6,21.9,29.86,ENE,63,10.0,12.0,79,0.00,,,0.00,311,Wunderground v.1.15,2013-03-16 17:30:00,
2013-03-16 13:40:00,27.4,22.0,29.86,NE,47,9.0,9.0,80,0.00,,,0.00,580,Wunderground v.1.15,2013-03-16 17:40:00,
2013-03-16 13:50:00,27.7,21.7,29.86,NE,40,9.0,9.0,78,0.00,,,0.00,417,Wunderground v.1.15,2013-03-16 17:50:00,
2013-03-16 14:00:00,27.9,22.2,29.86,ENE,57,7.0,7.0,79,0.00,,,0.00,429,Wunderground v.1.15,2013-03-16 18:00:00,
2013-03-16 14:10:00,27.7,21.7,29.86,NE,34,7.0,9.0,78,0.00,,,0.00,346,Wunderground v.1.15,2013-03-16 18:10:00,
2013-03-16 14:20:00,28.0,22.0,29.86,NE,50,7.0,10.0,78,0.00,,,0.00,274,Wunderground v.1.15,2013-03-16 18:20:00,
2013-03-16 14:30:00,27.3,21.3,29.86,NE,44,8.0,8.0,78,0.00,,,0.00,218,Wunderground v.1.15,2013-03-16 18:30:00,
2013-03-16 14:40:00,26.9,21.3,29.86,NNE,33,8.0,8.0,79,0.00,,,0.00,181,Wunderground v.1.15,2013-03-16 18:40:00,
2013-03-16 14:50:00,26.6,21.0,29.86,NNE,28,7.0,7.0,79,0.00,,,0.00,171,Wunderground v.1.15,2013-03-16 18:50:00,
2013-03-16 15:00:00,26.8,21.5,29.86,NE,50,7.0,8.0,80,0.00,,,0.00,202,Wunderground v.1.15,2013-03-16 19:00:00,
2013-03-16 15:20:00,26.3,21.3,29.86,NE,42,6.0,7.0,81,0.00,,,0.00,220,Wunderground v.1.15,2013-03-16 19:20:00,
2013-03-16 15:30:00,26.3,21.3,29.86,ENE,63,7.0,9.0,81,0.00,,,0.00,186,Wunderground v.1.15,2013-03-16 19:30:00,
2013-03-16 15:40:00,26.4,21.4,29.86,ENE,74,7.0,12.0,81,0.00,,,0.00,171,Wunderground v.1.15,2013-03-16 19:40:00,
2013-03-16 15:50:00,26.3,21.0,29.85,NE,49,7.0,7.0,80,0.00,,,0.00,181,Wunderground v.1.15,2013-03-16 19:50:00,
2013-03-16 16:00:00,26.3,20.7,29.86,ENE,76,7.0,7.0,79,0.00,,,0.00,183,Wunderground v.1.15,2013-03-16 20:00:00,
2013-03-16 16:10:00,26.3,21.3,29.86,NE,44,7.0,7.0,81,0.00,,,0.00,204,Wunderground v.1.15,2013-03-16 20:10:00,
2013-03-16 16:20:00,26.5,21.5,29.86,NE,51,8.0,8.0,81,0.00,,,0.00,186,Wunderground v.1.15,2013-03-16 20:20:00,
2013-03-16 16:30:00,26.0,20.1,29.87,NNE,19,7.0,8.0,78,0.00,,,0.00,176,Wunderground v.1.15,2013-03-16 20:30:00,
2013-03-16 16:40:00,26.0,20.1,29.87,NE,50,7.0,8.0,78,0.00,,,0.00,179,Wunderground v.1.15,2013-03-16 20:40:00,
2013-03-16 16:50:00,26.0,20.1,29.88,NE,42,7.0,7.0,78,0.00,,,0.00,162,Wunderground v.1.15,2013-03-16 20:50:00,
2013-03-16 17:00:00,26.0,20.4,29.88,NNE,17,6.0,6.0,79,0.00,,,0.00,127,Wunderground v.1.15,2013-03-16 21:00:00,
2013-03-16 17:10:00,25.8,20.2,29.88,ENE,65,8.0,8.0,79,0.00,,,0.00,127,Wunderground v.1.15,2013-03-16 21:10:00,
2013-03-16 17:30:00,25.6,19.4,29.88,NNE,25,7.0,7.0,77,0.00,,,0.00,104,Wunderground v.1.15,2013-03-16 21:30:00,
2013-03-16 17:40:00,25.6,19.1,29.89,NE,34,6.0,6.0,76,0.00,,,0.00,111,Wunderground v.1.15,2013-03-16 21:40:00,
2013-03-16 17:50:00,25.5,18.7,29.89,NE,43,5.0,6.0,75,0.00,,,0.00,109,Wunderground v.1.15,2013-03-16 21:50:00,
2013-03-16 18:00:00,25.3,18.2,29.89,NNE,30,5.0,5.0,74,0.00,,,0.00,109,Wunderground v.1.15,2013-03-16 22:00:00,
2013-03-16 18:10:00,25.6,19.4,29.90,NNE,25,5.0,8.0,77,0.00,,,0.00,105,Wunderground v.1.15,2013-03-16 22:10:00,
2013-03-16 18:20:00,25.5,18.7,29.90,NE,42,5.0,6.0,75,0.00,,,0.00,158,Wunderground v.1.15,2013-03-16 22:20:00,
2013-03-16 18:30:00,25.6,18.1,29.90,NNE,17,5.0,6.0,73,0.00,,,0.00,90,Wunderground v.1.15,2013-03-16 22:30:00,
2013-03-16 18:40:00,25.1,18.0,29.90,NE,36,4.0,5.0,74,0.00,,,0.00,44,Wunderground v.1.15,2013-03-16 22:40:00,
2013-03-16 18:50:00,24.9,17.5,29.91,North,11,4.0,4.0,73,0.00,,,0.00,25,Wunderground v.1.15,2013-03-16 22:50:00,
2013-03-16 19:00:00,24.5,17.1,29.91,North,11,4.0,4.0,73,0.00,,,0.00,16,Wunderground v.1.15,2013-03-16 23:00:00,
2013-03-16 19:10:00,24.1,16.7,29.91,North,360,2.0,2.0,73,0.00,,,0.00,11,Wunderground v.1.15,2013-03-16 23:10:00,
2013-03-16 19:20:00,23.8,16.7,29.91,NNW,332,0.0,0.0,74,0.00,,,0.00,5,Wunderground v.1.15,2013-03-16 23:20:00,
2013-03-16 19:30:00,23.5,16.7,29.92,North,351,0.0,0.0,75,0.00,,,0.00,0,Wunderground v.1.15,2013-03-16 23:30:00,
2013-03-16 20:00:00,22.8,17.6,29.93,North,355,0.0,0.0,80,0.00,,,0.00,0,Wunderground v.1.15,2013-03-17 00:00:00,
2013-03-16 20:10:00,22.6,17.6,29.94,North,355,0.0,0.0,81,0.00,,,0.00,0,Wunderground v.1.15,2013-03-17 00:10:00,
2013-03-16 20:20:00,22.3,17.6,29.94,North,355,0.0,0.0,82,0.00,,,0.00,0,Wunderground v.1.15,2013-03-17 00:20:00,
2013-03-16 20:30:00,21.9,17.2,29.95,North,355,0.0,0.0,82,0.00,,,0.00,0,Wunderground v.1.15,2013-03-17 00:30:00,
2013-03-16 20:40:00,21.6,17.5,29.96,North,355,0.0,0.0,84,0.00,,,0.00,0,Wunderground v.1.15,2013-03-17 00:40:00,
2013-03-16 20:50:00,21.6,17.5,29.96,North,355,0.0,0.0,84,0.00,,,0.00,0,Wunderground v.1.15,2013-03-17 00:50:00,
2013-03-16 21:00:00,21.6,17.8,29.96,North,355,0.0,0.0,85,0.00,,,0.00,0,Wunderground v.1.15,2013-03-17 01:00:00,
2013-03-16 21:10:00,21.3,17.8,29.96,North,355,0.0,0.0,86,0.00,,,0.00,0,Wunderground v.1.15,2013-03-17 01:10:00,
2013-03-16 21:20:00,21.1,17.6,29.96,NNW,342,0.0,0.0,86,0.00,,,0.00,0,Wunderground v.1.15,2013-03-17 01:20:00,
2013-03-16 21:30:00,21.4,17.6,29.96,NNW,342,0.0,0.0,85,0.00,,,0.00,0,Wunderground v.1.15,2013-03-17 01:30:00,
2013-03-16 21:40:00,21.4,18.1,29.97,NNW,342,0.0,0.0,87,0.00,,,0.00,0,Wunderground v.1.15,2013-03-17 01:40:00,
2013-03-16 21:50:00,21.2,17.9,29.97,NNW,340,0.0,0.0,87,0.00,,,0.00,0,Wunderground v.1.15,2013-03-17 01:50:00,
2013-03-16 22:00:00,20.9,17.9,29.97,NNW,340,0.0,0.0,88,0.00,,,0.00,0,Wunderground v.1.15,2013-03-17 02:00:00,
2013-03-16 22:10:00,20.7,18.0,29.98,NNW,340,0.0,0.0,89,0.00,,,0.00,0,Wunderground v.1.15,2013-03-17 02:10:00,
2013-03-16 22:20:00,20.5,17.8,29.97,NNW,340,0.0,0.0,89,0.00,,,0.00,0,Wunderground v.1.15,2013-03-17 02:20:00,
2013-03-16 22:30:00,20.7,18.2,29.97,NNW,340,0.0,0.0,90,0.00,,,0.00,0,Wunderground v.1.15,2013-03-17 02:30:00,
2013-03-16 22:40:00,20.6,18.1,29.97,NNW,340,0.0,0.0,90,0.00,,,0.00,0,Wunderground v.1.15,2013-03-17 02:40:00,
2013-03-16 22:50:00,20.2,17.7,29.98,NNW,340,0.0,0.0,90,0.00,,,0.00,0,Wunderground v.1.15,2013-03-17 02:50:00,
2013-03-16 23:00:00,19.7,17.2,29.98,NNW,340,0.0,0.0,90,0.00,,,0.00,0,Wunderground v.1.15,2013-03-17 03:00:00,
2013-03-16 23:10:00,19.4,16.7,29.98,NNW,340,0.0,0.0,89,0.00,,,0.00,0,Wunderground v.1.15,2013-03-17 03:10:00,
2013-03-16 23:20:00,20.1,17.9,29.99,NNW,340,0.0,0.0,91,0.00,,,0.00,0,Wunderground v.1.15,2013-03-17 03:20:00,
2013-03-16 23:30:00,20.2,17.7,29.98,NNW,332,0.0,0.0,90,0.00,,,0.00,0,Wunderground v.1.15,2013-03-17 03:30:00,
2013-03-16 23:40:00,20.2,17.7,29.98,NW,308,0.0,0.0,90,0.00,,,0.00,0,Wunderground v.1.15,2013-03-17 03:40:00,
2013-03-16 23:50:00,20.3,17.8,29.98,WNW,301,0.0,0.0,90,0.00,,,0.00,0,Wunderground v.1.15,2013-03-17 03:50:00,